User: anonymous   Login
Location: Unspecified
(0.0000°N, 0.0000°E)
Time: 05:10:57
(UTC+00:00)
Language:

UHF F/O F3 - Orbit

View from above orbital plane
View from above orbital plane
View from above satellite
View from above satellite

Ground track
Ground track

The orbit data is extracted from the following two-line orbital elements,

1 23132U 94035A   20057.24114490 -.00000269 +00000-0 +00000-0 0  9999
2 23132 011.4408 019.3067 0006021 322.6213 221.8110 01.00324730108605
Epoch (UTC): 26 February 2020 05:47:14
Eccentricity: 0.0006021
inclination: 11.4408°
perigee height: 35746 km
apogee height: 35797 km
right ascension of ascending node: 19.3067°
argument of perigee: 322.6213°
revolutions per day: 1.00324730
mean anomaly at epoch: 221.8110°
orbit number at epoch: 10860

The dashed part of the orbit path shows where the satellite is in the earth's shadow,  

DLR